Time,TemperatureF,DewpointF,PressureIn,WindDirection,WindDirectionDegrees,WindSpeedMPH,WindSpeedGustMPH,Humidity,HourlyPrecipIn,Conditions,Clouds,dailyrainin,SoftwareType,DateUTC
2013-01-22 00:01:00,23.0,18.6,29.76,NE,39,0.0,0.0,82,0.00,n/a,n/a,-99.99,Henriksen +1-Wire,2013-01-22 05:01:00,
2013-01-22 00:03:00,23.0,18.5,29.76,NE,39,0.0,0.0,82,0.00,n/a,n/a,-99.99,Henriksen +1-Wire,2013-01-22 05:03:00,
2013-01-22 00:07:00,23.0,18.5,29.76,NE,34,0.0,0.0,82,0.00,n/a,n/a,-99.99,Henriksen +1-Wire,2013-01-22 05:07:00,
2013-01-22 00:12:00,22.9,18.5,29.76,NE,36,0.0,0.0,83,0.00,n/a,n/a,-99.99,Henriksen +1-Wire,2013-01-22 05:12:00,
2013-01-22 00:17:00,23.0,18.6,29.76,NNE,25,0.0,0.0,83,0.00,n/a,n/a,-99.99,Henriksen +1-Wire,2013-01-22 05:17:00,
2013-01-22 00:22:00,23.0,18.7,29.76,NE,41,0.0,0.0,83,0.00,n/a,n/a,-99.99,Henriksen +1-Wire,2013-01-22 05:22:00,
2013-01-22 00:27:00,23.0,18.8,29.75,NNE,33,0.0,0.0,83,0.00,n/a,n/a,-99.99,Henriksen +1-Wire,2013-01-22 05:27:00,
2013-01-22 00:33:00,23.0,18.9,29.75,NNE,32,0.0,0.0,84,0.00,n/a,n/a,-99.99,Henriksen +1-Wire,2013-01-22 05:33:00,
2013-01-22 00:38:00,23.1,19.0,29.75,NNE,25,0.0,0.0,84,0.00,n/a,n/a,-99.99,Henriksen +1-Wire,2013-01-22 05:38:00,
2013-01-22 00:43:00,23.1,19.1,29.75,NNE,26,1.2,2.9,84,0.00,n/a,n/a,-99.99,Henriksen +1-Wire,2013-01-22 05:43:00,
2013-01-22 00:48:00,23.2,19.2,29.74,NNE,22,1.9,4.0,84,0.00,n/a,n/a,-99.99,Henriksen +1-Wire,2013-01-22 05:48:00,
2013-01-22 00:53:00,23.2,19.2,29.74,NNE,30,2.7,4.1,84,0.00,n/a,n/a,-99.99,Henriksen +1-Wire,2013-01-22 05:53:00,
2013-01-22 00:59:00,23.2,19.2,29.73,NE,34,4.4,6.6,84,0.00,n/a,n/a,-99.99,Henriksen +1-Wire,2013-01-22 05:59:00,
2013-01-22 01:04:00,23.1,19.0,29.73,NNE,31,3.0,6.6,84,0.00,n/a,n/a,-99.99,Henriksen +1-Wire,2013-01-22 06:04:00,
2013-01-22 01:09:00,23.1,18.9,29.73,NNE,25,2.9,5.5,83,0.00,n/a,n/a,-99.99,Henriksen +1-Wire,2013-01-22 06:09:00,
2013-01-22 01:14:00,23.2,18.9,29.74,NNE,33,3.3,5.5,83,0.00,n/a,n/a,-99.99,Henriksen +1-Wire,2013-01-22 06:14:00,
2013-01-22 01:19:00,23.2,18.9,29.74,NNE,25,2.3,5.5,83,0.00,n/a,n/a,-99.99,Henriksen +1-Wire,2013-01-22 06:19:00,
2013-01-22 01:25:00,23.2,18.8,29.74,NNE,32,2.6,5.5,82,0.00,n/a,n/a,-99.99,Henriksen +1-Wire,2013-01-22 06:25:00,
2013-01-22 01:30:00,23.3,18.7,29.74,NE,35,3.3,5.5,82,0.00,n/a,n/a,-99.99,Henriksen +1-Wire,2013-01-22 06:30:00,
2013-01-22 01:36:00,23.2,18.5,29.73,NNE,33,3.8,5.7,81,0.00,n/a,n/a,-99.99,Henriksen +1-Wire,2013-01-22 06:36:00,
2013-01-22 01:41:00,23.2,18.3,29.73,NE,36,3.4,6.1,81,0.00,n/a,n/a,-99.99,Henriksen +1-Wire,2013-01-22 06:41:00,
2013-01-22 01:46:00,23.1,18.1,29.73,NE,38,3.0,6.1,80,0.00,n/a,n/a,-99.99,Henriksen +1-Wire,2013-01-22 06:46:00,
2013-01-22 01:52:00,23.1,18.0,29.74,NE,45,2.4,5.5,80,0.00,n/a,n/a,-99.99,Henriksen +1-Wire,2013-01-22 06:52:00,
2013-01-22 01:58:00,23.1,17.9,29.74,NNE,30,3.1,4.2,80,0.00,n/a,n/a,-99.99,Henriksen +1-Wire,2013-01-22 06:58:00,
2013-01-22 02:03:00,23.1,17.9,29.75,NNE,32,2.7,4.8,80,0.00,n/a,n/a,-99.99,Henriksen +1-Wire,2013-01-22 07:03:00,
2013-01-22 02:09:00,23.1,17.9,29.75,NNE,26,3.9,5.5,80,0.00,n/a,n/a,-99.99,Henriksen +1-Wire,2013-01-22 07:09:00,
2013-01-22 02:15:00,23.1,17.7,29.74,NE,34,3.2,5.5,79,0.00,n/a,n/a,-99.99,Henriksen +1-Wire,2013-01-22 07:15:00,
2013-01-22 02:20:00,23.1,17.6,29.74,NNE,26,2.4,5.6,79,0.00,n/a,n/a,-99.99,Henriksen +1-Wire,2013-01-22 07:20:00,
2013-01-22 02:26:00,23.0,17.6,29.73,NNE,19,3.7,7.3,79,0.00,n/a,n/a,-99.99,Henriksen +1-Wire,2013-01-22 07:26:00,
2013-01-22 02:32:00,23.0,17.7,29.73,NE,37,3.7,8.5,79,0.00,n/a,n/a,-99.99,Henriksen +1-Wire,2013-01-22 07:32:00,
2013-01-22 02:37:00,23.0,17.6,29.73,NNE,31,3.1,5.8,79,0.00,n/a,n/a,-99.99,Henriksen +1-Wire,2013-01-22 07:37:00,
2013-01-22 02:42:00,23.0,17.6,29.73,NE,41,3.0,5.8,79,0.00,n/a,n/a,-99.99,Henriksen +1-Wire,2013-01-22 07:42:00,
2013-01-22 02:48:00,22.9,17.5,29.73,NE,35,3.3,6.3,79,0.00,n/a,n/a,-99.99,Henriksen +1-Wire,2013-01-22 07:48:00,
2013-01-22 02:53:00,22.8,17.4,29.73,NNE,30,4.4,7.2,79,0.00,n/a,n/a,-99.99,Henriksen +1-Wire,2013-01-22 07:53:00,
2013-01-22 02:58:00,22.8,17.3,29.73,NNE,31,3.5,7.2,79,0.00,n/a,n/a,-99.99,Henriksen +1-Wire,2013-01-22 07:58:00,
2013-01-22 03:03:00,22.8,17.3,29.73,NNE,25,3.2,5.5,79,0.00,n/a,n/a,-99.99,Henriksen +1-Wire,2013-01-22 08:03:00,
2013-01-22 03:08:00,22.7,17.5,29.72,NNE,29,3.1,5.7,80,0.00,n/a,n/a,-99.99,Henriksen +1-Wire,2013-01-22 08:08:00,
2013-01-22 03:14:00,22.7,17.7,29.72,NNE,31,4.2,6.4,81,0.00,n/a,n/a,-99.99,Henriksen +1-Wire,2013-01-22 08:14:00,
2013-01-22 03:19:00,22.3,17.5,29.72,NNE,29,3.9,6.4,81,0.00,n/a,n/a,-99.99,Henriksen +1-Wire,2013-01-22 08:19:00,
2013-01-22 03:24:00,21.6,17.0,29.72,NNE,29,4.3,7.1,82,0.00,n/a,n/a,-99.99,Henriksen +1-Wire,2013-01-22 08:24:00,
2013-01-22 03:29:00,21.2,16.7,29.72,NNE,31,3.8,7.1,82,0.00,n/a,n/a,-99.99,Henriksen +1-Wire,2013-01-22 08:29:00,
2013-01-22 03:34:00,20.9,16.5,29.72,NNE,25,3.6,6.3,82,0.00,n/a,n/a,-99.99,Henriksen +1-Wire,2013-01-22 08:34:00,
2013-01-22 03:39:00,20.8,16.5,29.71,NNE,26,4.8,7.9,83,0.00,n/a,n/a,-99.99,Henriksen +1-Wire,2013-01-22 08:39:00,
2013-01-22 03:44:00,20.7,16.4,29.71,NNE,13,3.7,7.9,83,0.00,n/a,n/a,-99.99,Henriksen +1-Wire,2013-01-22 08:44:00,
2013-01-22 03:49:00,20.6,16.4,29.71,NNE,15,3.6,6.2,83,0.00,n/a,n/a,-99.99,Henriksen +1-Wire,2013-01-22 08:49:00,
2013-01-22 03:55:00,20.5,16.3,29.71,NNE,14,3.6,6.2,83,0.00,n/a,n/a,-99.99,Henriksen +1-Wire,2013-01-22 08:55:00,
2013-01-22 04:00:00,20.4,16.3,29.71,NNE,22,3.6,5.9,83,0.00,n/a,n/a,-99.99,Henriksen +1-Wire,2013-01-22 09:00:00,
2013-01-22 04:06:00,20.3,16.2,29.71,NNE,16,3.5,5.9,84,0.00,n/a,n/a,-99.99,Henriksen +1-Wire,2013-01-22 09:06:00,
2013-01-22 04:11:00,20.2,16.2,29.71,North,9,2.9,6.3,84,0.00,n/a,n/a,-99.99,Henriksen +1-Wire,2013-01-22 09:11:00,
2013-01-22 04:16:00,20.2,16.3,29.71,NNE,28,3.5,6.3,84,0.00,n/a,n/a,-99.99,Henriksen +1-Wire,2013-01-22 09:16:00,
2013-01-22 04:21:00,20.1,16.2,29.71,North,9,4.3,6.1,84,0.00,n/a,n/a,-99.99,Henriksen +1-Wire,2013-01-22 09:21:00,
2013-01-22 04:26:00,20.4,16.4,29.71,NNE,28,3.9,7.1,84,0.00,n/a,n/a,-99.99,Henriksen +1-Wire,2013-01-22 09:26:00,
2013-01-22 04:31:00,20.9,16.8,29.71,NE,46,3.6,7.1,84,0.00,n/a,n/a,-99.99,Henriksen +1-Wire,2013-01-22 09:31:00,
2013-01-22 04:36:00,21.0,16.9,29.71,NNE,32,2.4,6.3,84,0.00,n/a,n/a,-99.99,Henriksen +1-Wire,2013-01-22 09:36:00,
2013-01-22 04:42:00,21.2,17.1,29.71,North,6,3.0,6.3,84,0.00,n/a,n/a,-99.99,Henriksen +1-Wire,2013-01-22 09:42:00,
2013-01-22 04:47:00,21.3,17.1,29.71,North,6,2.2,5.0,83,0.00,n/a,n/a,-99.99,Henriksen +1-Wire,2013-01-22 09:47:00,
2013-01-22 04:53:00,21.4,17.0,29.71,NE,39,3.4,7.1,83,0.00,n/a,n/a,-99.99,Henriksen +1-Wire,2013-01-22 09:53:00,
2013-01-22 04:58:00,21.3,16.9,29.71,NE,35,3.6,7.1,82,0.00,n/a,n/a,-99.99,Henriksen +1-Wire,2013-01-22 09:58:00,
2013-01-22 05:03:00,21.2,16.7,29.71,NNE,32,2.8,8.1,82,0.00,n/a,n/a,-99.99,Henriksen +1-Wire,2013-01-22 10:03:00,
2013-01-22 05:09:00,21.2,16.6,29.71,NE,39,4.0,8.1,82,0.00,n/a,n/a,-99.99,Henriksen +1-Wire,2013-01-22 10:09:00,
2013-01-22 05:14:00,21.1,16.4,29.71,NNE,31,3.1,5.5,82,0.00,n/a,n/a,-99.99,Henriksen +1-Wire,2013-01-22 10:14:00,
2013-01-22 05:20:00,21.0,16.2,29.71,NNE,26,3.8,5.5,81,0.00,n/a,n/a,-99.99,Henriksen +1-Wire,2013-01-22 10:20:00,
2013-01-22 05:26:00,20.2,15.3,29.72,NE,43,5.3,8.2,81,0.00,n/a,n/a,-99.99,Henriksen +1-Wire,2013-01-22 10:26:00,
2013-01-22 05:31:00,19.7,14.5,29.72,North,349,2.7,8.2,80,0.00,n/a,n/a,-99.99,Henriksen +1-Wire,2013-01-22 10:31:00,
2013-01-22 05:36:00,19.3,14.0,29.72,North,4,2.9,6.8,79,0.00,n/a,n/a,-99.99,Henriksen +1-Wire,2013-01-22 10:36:00,
2013-01-22 05:41:00,19.0,13.7,29.72,North,360,2.9,5.7,79,0.00,n/a,n/a,-99.99,Henriksen +1-Wire,2013-01-22 10:41:00,
2013-01-22 05:46:00,19.0,13.5,29.72,North,3,3.4,7.1,79,0.00,n/a,n/a,-99.99,Henriksen +1-Wire,2013-01-22 10:46:00,
2013-01-22 05:51:00,18.9,13.3,29.72,NNE,33,2.6,7.1,78,0.00,n/a,n/a,-99.99,Henriksen +1-Wire,2013-01-22 10:51:00,
2013-01-22 05:57:00,18.8,13.1,29.73,North,6,3.8,7.1,78,0.00,n/a,n/a,-99.99,Henriksen +1-Wire,2013-01-22 10:57:00,
2013-01-22 06:02:00,18.8,12.9,29.73,NNE,13,3.8,7.1,77,0.00,n/a,n/a,-99.99,Henriksen +1-Wire,2013-01-22 11:02:00,
2013-01-22 06:08:00,18.7,12.6,29.73,NNE,28,4.2,7.9,76,0.00,n/a,n/a,-99.99,Henriksen +1-Wire,2013-01-22 11:08:00,
2013-01-22 06:13:00,18.6,12.4,29.73,NNE,24,4.5,7.9,76,0.00,n/a,n/a,-99.99,Henriksen +1-Wire,2013-01-22 11:13:00,
2013-01-22 06:19:00,18.6,12.2,29.73,NNE,22,5.8,8.6,75,0.00,n/a,n/a,-99.99,Henriksen +1-Wire,2013-01-22 11:19:00,
2013-01-22 06:24:00,19.0,12.6,29.73,NNE,28,4.1,8.6,75,0.00,n/a,n/a,-99.99,Henriksen +1-Wire,2013-01-22 11:24:00,
2013-01-22 06:29:00,19.2,12.7,29.73,NNE,27,3.9,9.5,75,0.00,n/a,n/a,-99.99,Henriksen +1-Wire,2013-01-22 11:29:00,
2013-01-22 06:34:00,19.2,12.8,29.73,NNE,28,3.6,9.5,75,0.00,n/a,n/a,-99.99,Henriksen +1-Wire,2013-01-22 11:34:00,
2013-01-22 06:39:00,19.2,12.9,29.73,NNE,22,4.1,6.9,76,0.00,n/a,n/a,-99.99,Henriksen +1-Wire,2013-01-22 11:39:00,
2013-01-22 08:42:00,17.5,9.7,29.79,NE,37,4.1,8.5,71,0.00,n/a,n/a,-99.99,Henriksen +1-Wire,2013-01-22 13:42:00,
2013-01-22 08:48:00,17.6,9.7,29.79,NNE,17,4.8,9.4,70,0.00,n/a,n/a,-99.99,Henriksen +1-Wire,2013-01-22 13:48:00,
2013-01-22 08:53:00,17.4,9.5,29.79,NNE,12,3.9,9.4,70,0.00,n/a,n/a,-99.99,Henriksen +1-Wire,2013-01-22 13:53:00,
2013-01-22 08:58:00,17.1,9.2,29.80,NNE,14,3.3,7.7,70,0.00,n/a,n/a,-99.99,Henriksen +1-Wire,2013-01-22 13:58:00,
2013-01-22 09:04:00,17.0,9.0,29.80,North,357,3.3,7.9,70,0.00,n/a,n/a,-99.99,Henriksen +1-Wire,2013-01-22 14:04:00,
2013-01-22 09:09:00,17.7,9.6,29.80,North,0,2.1,7.4,70,0.00,n/a,n/a,-99.99,Henriksen +1-Wire,2013-01-22 14:09:00,
2013-01-22 09:14:00,18.3,10.2,29.80,NE,35,3.6,5.6,70,0.00,n/a,n/a,-99.99,Henriksen +1-Wire,2013-01-22 14:14:00,
2013-01-22 09:20:00,18.6,10.6,29.80,NE,36,3.4,6.9,70,0.00,n/a,n/a,-99.99,Henriksen +1-Wire,2013-01-22 14:20:00,
2013-01-22 09:25:00,18.2,10.0,29.81,NNE,13,2.4,6.3,70,0.00,n/a,n/a,-99.99,Henriksen +1-Wire,2013-01-22 14:25:00,
2013-01-22 09:30:00,18.6,10.3,29.81,NNE,31,4.4,7.1,69,0.00,n/a,n/a,-99.99,Henriksen +1-Wire,2013-01-22 14:30:00,
2013-01-22 11:33:00,23.0,11.5,29.79,NNW,328,4.3,10.9,61,0.00,n/a,n/a,-99.99,Henriksen +1-Wire,2013-01-22 16:33:00,
2013-01-22 11:38:00,23.3,10.7,29.79,NNW,331,4.7,8.1,58,0.00,n/a,n/a,-99.99,Henriksen +1-Wire,2013-01-22 16:38:00,
2013-01-22 11:43:00,23.4,9.9,29.79,NNW,344,5.9,9.7,55,0.00,n/a,n/a,-99.99,Henriksen +1-Wire,2013-01-22 16:43:00,
2013-01-22 11:49:00,23.5,8.3,29.79,NNW,334,6.0,10.9,51,0.00,n/a,n/a,-99.99,Henriksen +1-Wire,2013-01-22 16:49:00,
2013-01-22 11:54:00,23.8,7.8,29.79,North,357,6.6,11.8,50,0.00,n/a,n/a,-99.99,Henriksen +1-Wire,2013-01-22 16:54:00,
2013-01-22 13:57:00,24.1,3.7,29.80,NW,319,7.3,13.0,41,0.00,n/a,n/a,-99.99,Henriksen +1-Wire,2013-01-22 18:57:00,
2013-01-22 14:02:00,24.0,3.3,29.80,NNW,328,6.3,13.1,40,0.00,n/a,n/a,-99.99,Henriksen +1-Wire,2013-01-22 19:02:00,
2013-01-22 16:07:00,22.7,-0.3,29.86,NNW,343,7.6,11.8,36,0.00,n/a,n/a,-99.99,Henriksen +1-Wire,2013-01-22 21:07:00,
2013-01-22 16:12:00,22.8,0.0,29.86,North,5,4.6,11.8,36,0.00,n/a,n/a,-99.99,Henriksen +1-Wire,2013-01-22 21:12:00,
2013-01-22 18:13:00,19.5,1.8,29.93,NW,325,0.9,7.9,45,0.00,n/a,n/a,-99.99,Henriksen +1-Wire,2013-01-22 23:13:00,
2013-01-22 18:18:00,19.5,0.6,29.93,NW,322,0.9,7.5,43,0.00,n/a,n/a,-99.99,Henriksen +1-Wire,2013-01-22 23:18:00,
2013-01-22 18:23:00,19.4,-4.2,29.94,NW,320,1.5,7.5,34,0.00,n/a,n/a,-99.99,Henriksen +1-Wire,2013-01-22 23:23:00,
2013-01-22 20:25:00,15.2,6.6,29.98,NNW,344,3.3,7.7,68,0.00,n/a,n/a,-99.99,Henriksen +1-Wire,2013-01-23 01:25:00,
2013-01-22 20:27:00,15.4,6.6,29.98,NNW,341,3.7,8.8,68,0.00,n/a,n/a,-99.99,Henriksen +1-Wire,2013-01-23 01:27:00,
2013-01-22 20:33:00,15.6,6.5,29.98,NNW,340,0.9,8.8,67,0.00,n/a,n/a,-99.99,Henriksen +1-Wire,2013-01-23 01:33:00,
2013-01-22 20:38:00,15.6,6.5,29.99,NNW,344,0.4,6.4,67,0.00,n/a,n/a,-99.99,Henriksen +1-Wire,2013-01-23 01:38:00,
2013-01-22 20:43:00,15.6,6.6,29.99,North,351,1.3,5.5,67,0.00,n/a,n/a,-99.99,Henriksen +1-Wire,2013-01-23 01:43:00,
2013-01-22 20:48:00,15.6,6.6,29.99,NNW,345,3.3,9.3,67,0.00,n/a,n/a,-99.99,Henriksen +1-Wire,2013-01-23 01:48:00,
2013-01-22 20:53:00,15.6,6.5,29.99,NNW,332,0.9,9.3,67,0.00,n/a,n/a,-99.99,Henriksen +1-Wire,2013-01-23 01:53:00,
2013-01-22 22:57:00,13.9,2.9,30.02,NNW,334,0.0,4.7,61,0.00,n/a,n/a,-99.99,Henriksen +1-Wire,2013-01-23 03:57:00,
2013-01-22 23:02:00,13.8,2.9,30.02,NNW,330,0.0,4.7,61,0.00,n/a,n/a,-99.99,Henriksen +1-Wire,2013-01-23 04:02:00,
2013-01-22 23:07:00,13.7,2.9,30.02,NNW,335,0.0,1.7,61,0.00,n/a,n/a,-99.99,Henriksen +1-Wire,2013-01-23 04:07:00,